Time,TemperatureF,DewpointF,PressureIn,WindDirection,WindDirectionDegrees,WindSpeedMPH,WindSpeedGustMPH,Humidity,HourlyPrecipIn,Conditions,Clouds,dailyrainin,SoftwareType,DateUTC
2013-05-05 00:00:00,57.6,-99.9,30.14,SE,134,0.0,0.0,-999,0.00,,,-99.99,perl,2013-05-05 04:00:00,
2013-05-05 00:01:00,57.6,-99.9,30.14,SE,134,0.0,0.0,-999,0.00,,,-99.99,perl,2013-05-05 04:01:00,
2013-05-05 00:02:00,57.6,-99.9,30.14,SE,134,0.0,0.0,-999,0.00,,,-99.99,perl,2013-05-05 04:02:00,
2013-05-05 00:04:00,57.4,-99.9,30.14,SE,135,0.0,0.0,-999,0.00,,,-99.99,perl,2013-05-05 04:04:00,
2013-05-05 00:06:00,57.4,-99.9,30.14,SE,134,0.0,0.0,-999,0.00,,,-99.99,perl,2013-05-05 04:06:00,
2013-05-05 00:11:00,57.2,-99.9,30.14,SE,134,0.0,0.0,-999,0.00,,,-99.99,perl,2013-05-05 04:11:00,
2013-05-05 00:16:00,57.0,-99.9,30.14,SE,134,0.0,0.0,-999,0.00,,,-99.99,perl,2013-05-05 04:16:00,
2013-05-05 00:21:00,56.8,-99.9,30.14,SE,135,0.0,0.0,-999,0.00,,,-99.99,perl,2013-05-05 04:21:00,
2013-05-05 00:26:00,56.7,-99.9,30.14,SE,135,0.0,0.0,-999,0.00,,,-99.99,perl,2013-05-05 04:26:00,
2013-05-05 00:31:00,56.3,-99.9,30.14,SE,135,0.0,0.0,-999,0.00,,,-99.99,perl,2013-05-05 04:31:00,
2013-05-05 00:37:00,55.9,-99.9,30.14,SE,134,0.0,0.0,-999,0.00,,,-99.99,perl,2013-05-05 04:37:00,
2013-05-05 00:40:00,55.9,-99.9,30.14,SE,134,0.0,0.0,-999,0.00,,,-99.99,perl,2013-05-05 04:40:00,
2013-05-05 00:45:00,55.8,-99.9,30.14,SE,135,0.0,0.0,-999,0.00,,,-99.99,perl,2013-05-05 04:45:00,
2013-05-05 00:50:00,55.6,-99.9,30.14,SE,135,0.0,0.0,-999,0.00,,,-99.99,perl,2013-05-05 04:50:00,
2013-05-05 00:55:00,55.4,-99.9,30.14,SE,134,0.0,0.0,-999,0.00,,,-99.99,perl,2013-05-05 04:55:00,
2013-05-05 01:00:00,55.2,-99.9,30.14,SE,135,0.0,0.0,-999,0.00,,,-99.99,perl,2013-05-05 05:00:00,
2013-05-05 01:05:00,55.0,-99.9,30.14,SE,136,0.0,0.0,-999,0.00,,,-99.99,perl,2013-05-05 05:05:00,
2013-05-05 01:10:00,54.9,-99.9,30.14,SE,135,0.0,0.0,-999,0.00,,,-99.99,perl,2013-05-05 05:10:00,
2013-05-05 01:15:00,54.5,-99.9,30.14,SE,135,0.0,0.0,-999,0.00,,,-99.99,perl,2013-05-05 05:15:00,
2013-05-05 01:20:00,54.3,-99.9,30.14,SE,135,0.0,0.0,-999,0.00,,,-99.99,perl,2013-05-05 05:20:00,
2013-05-05 01:25:00,54.1,-99.9,30.14,SE,135,0.0,0.0,-999,0.00,,,-99.99,perl,2013-05-05 05:25:00,
2013-05-05 01:30:00,54.1,-99.9,30.14,SE,135,0.0,0.0,-999,0.00,,,-99.99,perl,2013-05-05 05:30:00,
2013-05-05 01:35:00,54.0,-99.9,30.14,SE,135,0.0,0.0,-999,0.00,,,-99.99,perl,2013-05-05 05:35:00,
2013-05-05 01:40:00,53.6,-99.9,30.14,SE,134,0.0,0.0,-999,0.00,,,-99.99,perl,2013-05-05 05:40:00,
2013-05-05 01:45:00,53.6,-99.9,30.14,SE,135,0.0,0.0,-999,0.00,,,-99.99,perl,2013-05-05 05:45:00,
2013-05-05 01:51:00,53.4,-99.9,30.14,SE,135,0.0,0.0,-999,0.00,,,-99.99,perl,2013-05-05 05:51:00,
2013-05-05 01:56:00,53.2,-99.9,30.14,SE,134,0.0,0.0,-999,0.00,,,-99.99,perl,2013-05-05 05:56:00,
2013-05-05 02:02:00,53.1,-99.9,30.14,SE,135,0.0,0.0,-999,0.00,,,-99.99,perl,2013-05-05 06:02:00,
2013-05-05 02:07:00,52.9,32.0,30.14,SE,135,0.0,0.0,45,0.00,,,-99.99,perl,2013-05-05 06:07:00,
2013-05-05 02:12:00,52.7,33.8,30.14,SE,135,0.0,0.0,48,0.00,,,-99.99,perl,2013-05-05 06:12:00,
2013-05-05 02:17:00,52.5,32.0,30.14,SE,135,0.0,0.0,46,0.00,,,-99.99,perl,2013-05-05 06:17:00,
2013-05-05 02:22:00,52.3,32.0,30.14,SE,134,0.0,0.0,46,0.00,,,-99.99,perl,2013-05-05 06:22:00,
2013-05-05 02:28:00,52.2,32.0,30.14,SE,135,0.0,0.0,46,0.00,,,-99.99,perl,2013-05-05 06:28:00,
2013-05-05 02:33:00,52.0,32.0,30.14,SE,135,0.0,0.0,46,0.00,,,-99.99,perl,2013-05-05 06:33:00,
2013-05-05 02:38:00,51.8,32.0,30.14,SE,135,0.0,0.0,47,0.00,,,-99.99,perl,2013-05-05 06:38:00,
2013-05-05 02:43:00,51.6,32.0,30.14,SE,135,0.0,0.0,47,0.00,,,-99.99,perl,2013-05-05 06:43:00,
2013-05-05 02:48:00,51.4,35.6,30.14,SE,135,0.0,0.0,55,0.00,,,-99.99,perl,2013-05-05 06:48:00,
2013-05-05 02:53:00,51.3,35.6,30.14,SE,135,0.0,0.0,55,0.00,,,-99.99,perl,2013-05-05 06:53:00,
2013-05-05 02:58:00,51.1,33.8,30.14,SE,135,0.0,0.0,51,0.00,,,-99.99,perl,2013-05-05 06:58:00,
2013-05-05 03:03:00,50.9,33.8,30.14,SE,135,0.0,0.0,51,0.00,,,-99.99,perl,2013-05-05 07:03:00,
2013-05-05 03:08:00,50.9,33.8,30.14,SE,135,0.0,0.0,51,0.00,,,-99.99,perl,2013-05-05 07:08:00,
2013-05-05 03:13:00,50.7,32.0,30.14,SE,135,0.0,0.0,49,0.00,,,-99.99,perl,2013-05-05 07:13:00,
2013-05-05 03:18:00,50.7,32.0,30.14,SE,135,0.0,0.0,49,0.00,,,-99.99,perl,2013-05-05 07:18:00,
2013-05-05 03:23:00,50.7,32.0,30.14,SE,135,0.0,0.0,49,0.00,,,-99.99,perl,2013-05-05 07:23:00,
2013-05-05 03:28:00,50.7,32.0,30.14,SE,135,0.0,0.0,49,0.00,,,-99.99,perl,2013-05-05 07:28:00,
2013-05-05 03:34:00,50.5,33.8,30.14,SE,135,0.0,0.0,52,0.00,,,-99.99,perl,2013-05-05 07:34:00,
2013-05-05 03:39:00,50.5,33.8,30.14,SE,134,0.0,0.0,52,0.00,,,-99.99,perl,2013-05-05 07:39:00,
2013-05-05 03:44:00,50.5,33.8,30.14,SE,135,0.0,0.0,52,0.00,,,-99.99,perl,2013-05-05 07:44:00,
2013-05-05 03:50:00,50.4,33.8,30.14,South,179,0.0,0.0,52,0.00,,,-99.99,perl,2013-05-05 07:50:00,
2013-05-05 03:55:00,50.0,35.6,30.14,SSW,196,0.0,0.0,58,0.00,,,-99.99,perl,2013-05-05 07:55:00,
2013-05-05 04:00:00,49.8,39.2,30.14,SSW,196,0.0,0.0,67,0.00,,,-99.99,perl,2013-05-05 08:00:00,
2013-05-05 04:05:00,49.6,39.2,30.14,SSW,196,0.0,0.0,68,0.00,,,-99.99,perl,2013-05-05 08:05:00,
2013-05-05 04:11:00,49.3,39.2,30.14,SSW,196,0.0,0.0,68,0.00,,,-99.99,perl,2013-05-05 08:11:00,
2013-05-05 04:16:00,49.1,39.2,30.14,SSW,194,0.0,0.0,69,0.00,,,-99.99,perl,2013-05-05 08:16:00,
2013-05-05 04:21:00,48.7,37.4,30.14,SSW,193,0.0,0.0,65,0.00,,,-99.99,perl,2013-05-05 08:21:00,
2013-05-05 04:27:00,48.6,37.4,30.14,SSW,194,0.0,0.0,65,0.00,,,-99.99,perl,2013-05-05 08:27:00,
2013-05-05 04:32:00,48.6,39.2,30.14,SSW,193,0.0,0.0,70,0.00,,,-99.99,perl,2013-05-05 08:32:00,
2013-05-05 04:37:00,48.4,39.2,30.14,SSW,194,0.0,0.0,70,0.00,,,-99.99,perl,2013-05-05 08:37:00,
2013-05-05 04:42:00,48.4,39.2,30.14,SSW,194,0.0,0.0,70,0.00,,,-99.99,perl,2013-05-05 08:42:00,
2013-05-05 04:48:00,48.4,39.2,30.14,SSW,194,0.0,0.0,70,0.00,,,-99.99,perl,2013-05-05 08:48:00,
2013-05-05 04:53:00,48.6,41.0,30.14,SSW,194,0.0,0.0,75,0.00,,,-99.99,perl,2013-05-05 08:53:00,
2013-05-05 04:58:00,48.7,41.0,30.14,SSW,193,0.0,0.0,75,0.00,,,-99.99,perl,2013-05-05 08:58:00,
2013-05-05 05:04:00,48.7,42.8,30.14,SSW,193,0.0,0.0,80,0.00,,,-99.99,perl,2013-05-05 09:04:00,
2013-05-05 05:09:00,48.7,42.8,30.14,SSW,194,0.0,0.0,80,0.00,,,-99.99,perl,2013-05-05 09:09:00,
2013-05-05 05:14:00,48.9,41.0,30.14,SSW,193,0.0,0.0,74,0.00,,,-99.99,perl,2013-05-05 09:14:00,
2013-05-05 05:19:00,48.9,41.0,30.14,SSW,200,0.0,0.0,74,0.00,,,-99.99,perl,2013-05-05 09:19:00,
2013-05-05 05:25:00,48.9,41.0,30.14,SSW,204,0.0,0.0,74,0.00,,,-99.99,perl,2013-05-05 09:25:00,
2013-05-05 05:30:00,49.3,42.8,30.14,SW,214,0.0,0.0,78,0.00,,,-99.99,perl,2013-05-05 09:30:00,
2013-05-05 05:35:00,49.5,41.0,30.14,SW,220,0.0,0.0,73,0.00,,,-99.99,perl,2013-05-05 09:35:00,
2013-05-05 05:40:00,49.6,41.0,30.14,SW,217,0.0,0.0,73,0.00,,,-99.99,perl,2013-05-05 09:40:00,
2013-05-05 05:45:00,49.6,41.0,30.14,SW,214,0.0,0.0,73,0.00,,,-99.99,perl,2013-05-05 09:45:00,
2013-05-05 05:50:00,49.5,41.0,30.14,SW,214,0.0,0.0,73,0.00,,,-99.99,perl,2013-05-05 09:50:00,
2013-05-05 05:55:00,49.3,41.0,30.14,SW,216,0.0,0.0,73,0.00,,,-99.99,perl,2013-05-05 09:55:00,
2013-05-05 06:00:00,49.3,41.0,30.14,SW,220,0.0,0.0,73,0.00,,,-99.99,perl,2013-05-05 10:00:00,
2013-05-05 06:05:00,49.5,39.2,30.14,SW,221,0.0,0.0,68,0.00,,,-99.99,perl,2013-05-05 10:05:00,
2013-05-05 06:10:00,49.6,39.2,30.14,SW,224,0.0,0.0,68,0.00,,,-99.99,perl,2013-05-05 10:10:00,
2013-05-05 06:15:00,49.8,39.2,30.14,WSW,246,0.0,0.0,67,0.00,,,-99.99,perl,2013-05-05 10:15:00,
2013-05-05 06:20:00,50.0,39.2,30.14,West,280,0.0,0.0,66,0.00,,,-99.99,perl,2013-05-05 10:20:00,
2013-05-05 06:25:00,50.0,39.2,30.14,West,272,0.0,0.0,66,0.00,,,-99.99,perl,2013-05-05 10:25:00,
2013-05-05 06:30:00,50.0,39.2,30.14,West,272,0.0,0.0,66,0.00,,,-99.99,perl,2013-05-05 10:30:00,
2013-05-05 06:35:00,49.8,39.2,30.14,WSW,251,0.0,0.0,67,0.00,,,-99.99,perl,2013-05-05 10:35:00,
2013-05-05 06:40:00,49.6,39.2,30.14,WSW,252,0.0,0.0,68,0.00,,,-99.99,perl,2013-05-05 10:40:00,
2013-05-05 06:45:00,49.5,39.2,30.17,WSW,251,0.0,0.0,68,0.00,,,-99.99,perl,2013-05-05 10:45:00,
2013-05-05 06:51:00,49.5,39.2,30.17,WSW,251,0.0,0.0,68,0.00,,,-99.99,perl,2013-05-05 10:51:00,
2013-05-05 06:56:00,49.5,41.0,30.17,WSW,251,0.0,0.0,73,0.00,,,-99.99,perl,2013-05-05 10:56:00,
2013-05-05 07:01:00,49.6,41.0,30.17,WSW,251,0.0,0.0,73,0.00,,,-99.99,perl,2013-05-05 11:01:00,
2013-05-05 07:06:00,49.8,41.0,30.17,WSW,251,0.0,0.0,72,0.00,,,-99.99,perl,2013-05-05 11:06:00,
2013-05-05 07:11:00,50.2,41.0,30.17,WSW,251,0.0,0.0,71,0.00,,,-99.99,perl,2013-05-05 11:11:00,
2013-05-05 07:16:00,50.4,41.0,30.17,WSW,252,0.0,0.0,70,0.00,,,-99.99,perl,2013-05-05 11:16:00,
2013-05-05 07:21:00,50.9,42.8,30.17,WSW,250,0.0,0.0,73,0.00,,,-99.99,perl,2013-05-05 11:21:00,
2013-05-05 07:26:00,51.6,41.0,30.17,WSW,251,0.0,0.0,67,0.00,,,-99.99,perl,2013-05-05 11:26:00,
2013-05-05 07:31:00,52.3,39.2,30.17,WSW,251,0.0,0.0,61,0.00,,,-99.99,perl,2013-05-05 11:31:00,
2013-05-05 07:36:00,53.1,41.0,30.17,WSW,251,0.0,0.0,63,0.00,,,-99.99,perl,2013-05-05 11:36:00,
2013-05-05 07:41:00,53.8,41.0,30.17,WSW,251,0.0,0.0,62,0.00,,,-99.99,perl,2013-05-05 11:41:00,
2013-05-05 07:46:00,54.3,39.2,30.17,WSW,251,0.0,0.0,57,0.00,,,-99.99,perl,2013-05-05 11:46:00,
2013-05-05 07:51:00,55.2,41.0,30.17,WSW,252,0.0,0.0,59,0.00,,,-99.99,perl,2013-05-05 11:51:00,
2013-05-05 07:56:00,56.1,39.2,30.17,WSW,251,0.0,0.0,53,0.00,,,-99.99,perl,2013-05-05 11:56:00,
2013-05-05 08:01:00,57.0,41.0,30.17,WSW,251,0.0,0.0,55,0.00,,,-99.99,perl,2013-05-05 12:01:00,
2013-05-05 08:06:00,57.7,39.2,30.17,WSW,251,0.0,0.0,50,0.00,,,-99.99,perl,2013-05-05 12:06:00,
2013-05-05 08:11:00,58.3,39.2,30.17,WSW,251,0.0,0.0,49,0.00,,,-99.99,perl,2013-05-05 12:11:00,
2013-05-05 08:17:00,59.2,39.2,30.17,WSW,251,0.0,0.0,47,0.00,,,-99.99,perl,2013-05-05 12:17:00,
2013-05-05 08:22:00,59.9,39.2,30.17,WNW,297,0.0,0.0,46,0.00,,,-99.99,perl,2013-05-05 12:22:00,
2013-05-05 08:27:00,60.8,39.2,30.17,WNW,290,0.0,0.0,45,0.00,,,-99.99,perl,2013-05-05 12:27:00,
2013-05-05 08:32:00,61.5,37.4,30.17,WNW,289,0.0,0.0,41,0.00,,,-99.99,perl,2013-05-05 12:32:00,
2013-05-05 08:38:00,62.1,37.4,30.17,West,261,2.5,2.7,40,0.00,,,-99.99,perl,2013-05-05 12:38:00,
2013-05-05 08:43:00,62.4,35.6,30.17,WSW,246,0.0,0.0,37,0.00,,,-99.99,perl,2013-05-05 12:43:00,
2013-05-05 08:48:00,63.0,35.6,30.17,West,270,0.0,2.2,36,0.00,,,-99.99,perl,2013-05-05 12:48:00,
2013-05-05 08:53:00,63.5,35.6,30.17,SW,236,0.0,0.0,35,0.00,,,-99.99,perl,2013-05-05 12:53:00,
2013-05-05 08:58:00,64.2,35.6,30.17,WNW,294,0.8,2.2,35,0.00,,,-99.99,perl,2013-05-05 12:58:00,
2013-05-05 09:03:00,64.6,33.8,30.17,West,268,2.4,0.0,31,0.00,,,-99.99,perl,2013-05-05 13:03:00,
2013-05-05 09:08:00,65.3,35.6,30.17,West,281,0.0,0.0,33,0.00,,,-99.99,perl,2013-05-05 13:08:00,
2013-05-05 09:13:00,65.8,35.6,30.17,West,280,0.0,0.0,33,0.00,,,-99.99,perl,2013-05-05 13:13:00,
2013-05-05 09:18:00,66.4,33.8,30.17,West,272,0.7,0.0,30,0.00,,,-99.99,perl,2013-05-05 13:18:00,
2013-05-05 09:23:00,66.7,33.8,30.17,WNW,286,0.7,0.0,29,0.00,,,-99.99,perl,2013-05-05 13:23:00,
2013-05-05 09:28:00,66.9,32.0,30.17,West,280,2.9,4.0,27,0.00,,,-99.99,perl,2013-05-05 13:28:00,
2013-05-05 09:34:00,67.5,33.8,30.17,WNW,290,0.0,0.0,28,0.00,,,-99.99,perl,2013-05-05 13:34:00,
2013-05-05 09:39:00,67.8,32.0,30.17,WSW,240,0.0,0.0,27,0.00,,,-99.99,perl,2013-05-05 13:39:00,
2013-05-05 09:44:00,68.0,32.0,30.17,West,274,0.0,4.0,26,0.00,,,-99.99,perl,2013-05-05 13:44:00,
2013-05-05 09:49:00,68.2,32.0,30.17,West,280,0.0,0.0,26,0.00,,,-99.99,perl,2013-05-05 13:49:00,
2013-05-05 09:54:00,68.4,-99.9,30.17,SW,235,2.2,2.7,-999,0.00,,,-99.99,perl,2013-05-05 13:54:00,
2013-05-05 09:59:00,68.9,32.0,30.17,WSW,250,0.0,0.0,25,0.00,,,-99.99,perl,2013-05-05 13:59:00,
2013-05-05 10:04:00,69.4,32.0,30.17,WSW,256,0.0,0.0,25,0.00,,,-99.99,perl,2013-05-05 14:04:00,
2013-05-05 10:09:00,70.2,32.0,30.17,SE,141,0.0,0.0,24,0.00,,,-99.99,perl,2013-05-05 14:09:00,
2013-05-05 10:14:00,71.1,33.8,30.17,WNW,284,0.0,0.0,25,0.00,,,-99.99,perl,2013-05-05 14:14:00,
2013-05-05 10:19:00,70.7,32.0,30.17,WSW,258,3.4,5.8,24,0.00,,,-99.99,perl,2013-05-05 14:19:00,
2013-05-05 10:24:00,70.3,-99.9,30.17,West,273,0.0,0.0,-999,0.00,,,-99.99,perl,2013-05-05 14:24:00,
2013-05-05 10:29:00,70.2,-99.9,30.17,North,357,0.0,0.0,-999,0.00,,,-99.99,perl,2013-05-05 14:29:00,
2013-05-05 10:34:00,70.9,32.0,30.17,NNW,328,0.0,0.0,24,0.00,,,-99.99,perl,2013-05-05 14:34:00,
2013-05-05 10:39:00,71.4,32.0,30.17,West,270,0.0,0.0,23,0.00,,,-99.99,perl,2013-05-05 14:39:00,
2013-05-05 10:44:00,71.6,32.0,30.17,NNW,340,0.0,0.0,23,0.00,,,-99.99,perl,2013-05-05 14:44:00,
2013-05-05 10:49:00,71.8,-99.9,30.17,West,275,2.7,3.6,-999,0.00,,,-99.99,perl,2013-05-05 14:49:00,
2013-05-05 10:54:00,71.4,32.0,30.17,SSW,205,0.0,0.0,23,0.00,,,-99.99,perl,2013-05-05 14:54:00,
2013-05-05 10:59:00,71.4,32.0,30.17,NE,53,0.0,0.0,23,0.00,,,-99.99,perl,2013-05-05 14:59:00,
2013-05-05 11:04:00,72.0,32.0,30.17,NE,51,0.0,0.0,23,0.00,,,-99.99,perl,2013-05-05 15:04:00,
2013-05-05 11:09:00,72.1,-99.9,30.17,SE,137,0.0,0.0,-999,0.00,,,-99.99,perl,2013-05-05 15:09:00,
2013-05-05 11:14:00,72.3,-99.9,30.17,South,176,0.0,0.0,-999,0.00,,,-99.99,perl,2013-05-05 15:14:00,
2013-05-05 11:19:00,72.9,32.0,30.17,NNW,338,0.0,0.0,22,0.00,,,-99.99,perl,2013-05-05 15:19:00,
2013-05-05 11:24:00,73.0,32.0,30.17,ENE,77,0.6,0.0,22,0.00,,,-99.99,perl,2013-05-05 15:24:00,
2013-05-05 11:29:00,73.4,32.0,30.17,WNW,287,2.0,2.7,22,0.00,,,-99.99,perl,2013-05-05 15:29:00,
2013-05-05 11:35:00,72.9,32.0,30.17,NW,309,0.0,0.0,22,0.00,,,-99.99,perl,2013-05-05 15:35:00,
2013-05-05 11:40:00,73.2,32.0,30.17,East,83,0.0,4.0,22,0.00,,,-99.99,perl,2013-05-05 15:40:00,
2013-05-05 11:45:00,73.9,32.0,30.17,NNW,344,0.0,0.0,22,0.00,,,-99.99,perl,2013-05-05 15:45:00,
2013-05-05 11:50:00,74.7,33.8,30.17,West,269,0.0,0.0,22,0.00,,,-99.99,perl,2013-05-05 15:50:00,
2013-05-05 11:56:00,73.9,32.0,30.17,SE,128,4.8,6.3,22,0.00,,,-99.99,perl,2013-05-05 15:56:00,
2013-05-05 12:01:00,73.0,32.0,30.17,West,273,3.8,5.4,22,0.00,,,-99.99,perl,2013-05-05 16:01:00,
2013-05-05 12:06:00,72.7,32.0,30.17,SSE,157,4.0,4.0,22,0.00,,,-99.99,perl,2013-05-05 16:06:00,
2013-05-05 12:12:00,72.7,32.0,30.17,ESE,117,2.6,3.1,22,0.00,,,-99.99,perl,2013-05-05 16:12:00,
2013-05-05 12:17:00,73.0,32.0,30.14,West,270,1.2,0.0,22,0.00,,,-99.99,perl,2013-05-05 16:17:00,
2013-05-05 12:22:00,73.0,32.0,30.14,West,267,3.1,3.6,22,0.00,,,-99.99,perl,2013-05-05 16:22:00,
2013-05-05 12:27:00,73.6,32.0,30.14,ESE,106,0.0,4.9,22,0.00,,,-99.99,perl,2013-05-05 16:27:00,
2013-05-05 12:32:00,73.8,32.0,30.14,ESE,114,2.5,3.6,22,0.00,,,-99.99,perl,2013-05-05 16:32:00,
2013-05-05 12:37:00,74.3,32.0,30.14,East,93,3.7,5.8,21,0.00,,,-99.99,perl,2013-05-05 16:37:00,
2013-05-05 12:42:00,74.3,32.0,30.14,ENE,67,3.4,5.4,21,0.00,,,-99.99,perl,2013-05-05 16:42:00,
2013-05-05 12:47:00,74.3,32.0,30.14,ENE,66,3.1,4.9,21,0.00,,,-99.99,perl,2013-05-05 16:47:00,
2013-05-05 12:52:00,74.5,32.0,30.14,ENE,64,2.7,5.4,21,0.00,,,-99.99,perl,2013-05-05 16:52:00,
2013-05-05 12:57:00,74.8,32.0,30.14,East,98,2.7,5.8,21,0.00,,,-99.99,perl,2013-05-05 16:57:00,
2013-05-05 13:02:00,75.0,32.0,30.14,ENE,78,5.5,7.6,21,0.00,,,-99.99,perl,2013-05-05 17:02:00,
2013-05-05 13:07:00,74.3,32.0,30.14,South,181,2.9,0.0,21,0.00,,,-99.99,perl,2013-05-05 17:07:00,
2013-05-05 13:12:00,74.7,32.0,30.14,East,86,0.0,6.3,21,0.00,,,-99.99,perl,2013-05-05 17:12:00,
2013-05-05 13:17:00,75.0,32.0,30.11,East,97,3.0,5.4,21,0.00,,,-99.99,perl,2013-05-05 17:17:00,
2013-05-05 13:22:00,75.2,32.0,30.11,South,188,2.8,5.8,21,0.00,,,-99.99,perl,2013-05-05 17:22:00,
2013-05-05 13:27:00,75.6,32.0,30.11,East,84,1.7,5.4,20,0.00,,,-99.99,perl,2013-05-05 17:27:00,
2013-05-05 13:32:00,74.8,32.0,30.11,East,93,5.1,7.6,21,0.00,,,-99.99,perl,2013-05-05 17:32:00,
2013-05-05 13:37:00,74.8,32.0,30.11,SSE,151,0.0,3.1,21,0.00,,,-99.99,perl,2013-05-05 17:37:00,
2013-05-05 13:42:00,75.0,32.0,30.11,SSW,193,0.6,0.0,21,0.00,,,-99.99,perl,2013-05-05 17:42:00,
2013-05-05 13:47:00,75.6,32.0,30.11,SE,130,0.0,0.0,20,0.00,,,-99.99,perl,2013-05-05 17:47:00,
2013-05-05 13:52:00,76.5,-99.9,30.11,ESE,112,1.7,8.3,-999,0.00,,,-99.99,perl,2013-05-05 17:52:00,
2013-05-05 13:57:00,75.9,-99.9,30.11,SE,134,3.3,5.8,-999,0.00,,,-99.99,perl,2013-05-05 17:57:00,
2013-05-05 14:03:00,76.1,-99.9,30.11,SE,143,2.0,2.7,-999,0.00,,,-99.99,perl,2013-05-05 18:03:00,
2013-05-05 14:08:00,76.5,33.8,30.11,SE,129,0.0,0.0,21,0.00,,,-99.99,perl,2013-05-05 18:08:00,
2013-05-05 14:13:00,76.3,33.8,30.11,North,10,3.8,4.9,21,0.00,,,-99.99,perl,2013-05-05 18:13:00,
2013-05-05 14:18:00,75.9,32.0,30.11,East,96,4.0,4.0,20,0.00,,,-99.99,perl,2013-05-05 18:18:00,
2013-05-05 14:23:00,75.9,32.0,30.11,East,79,4.1,4.9,20,0.00,,,-99.99,perl,2013-05-05 18:23:00,
2013-05-05 14:28:00,75.4,-99.9,30.11,SSE,156,4.9,5.4,-999,0.00,,,-99.99,perl,2013-05-05 18:28:00,
2013-05-05 14:33:00,75.7,32.0,30.11,East,79,3.0,4.9,20,0.00,,,-99.99,perl,2013-05-05 18:33:00,
2013-05-05 14:38:00,75.7,32.0,30.11,ESE,120,2.7,0.0,20,0.00,,,-99.99,perl,2013-05-05 18:38:00,
2013-05-05 14:43:00,75.4,32.0,30.11,SE,142,3.0,3.1,20,0.00,,,-99.99,perl,2013-05-05 18:43:00,
2013-05-05 14:48:00,75.7,32.0,30.11,SE,125,0.0,0.0,20,0.00,,,-99.99,perl,2013-05-05 18:48:00,
2013-05-05 14:53:00,76.1,33.8,30.11,East,94,2.6,4.0,21,0.00,,,-99.99,perl,2013-05-05 18:53:00,
2013-05-05 14:58:00,75.7,32.0,30.11,SSE,153,3.1,4.9,20,0.00,,,-99.99,perl,2013-05-05 18:58:00,
2013-05-05 15:03:00,75.6,32.0,30.08,ENE,77,0.0,4.0,20,0.00,,,-99.99,perl,2013-05-05 19:03:00,
2013-05-05 15:08:00,75.4,32.0,30.08,NE,41,0.0,4.0,20,0.00,,,-99.99,perl,2013-05-05 19:08:00,
2013-05-05 15:13:00,75.6,32.0,30.08,NE,36,3.3,4.9,20,0.00,,,-99.99,perl,2013-05-05 19:13:00,
2013-05-05 15:18:00,75.4,32.0,30.08,WSW,243,1.4,0.0,20,0.00,,,-99.99,perl,2013-05-05 19:18:00,
2013-05-05 15:23:00,76.1,33.8,30.08,East,79,0.0,0.0,21,0.00,,,-99.99,perl,2013-05-05 19:23:00,
2013-05-05 15:28:00,75.9,-99.9,30.08,East,100,3.5,5.8,-999,0.00,,,-99.99,perl,2013-05-05 19:28:00,
2013-05-05 15:34:00,75.0,32.0,30.08,NE,38,3.0,3.1,21,0.00,,,-99.99,perl,2013-05-05 19:34:00,
2013-05-05 15:39:00,75.0,-99.9,30.08,ESE,110,4.1,10.5,-999,0.00,,,-99.99,perl,2013-05-05 19:39:00,
2013-05-05 15:44:00,75.6,-99.9,30.08,ENE,63,2.8,4.9,-999,0.00,,,-99.99,perl,2013-05-05 19:44:00,
2013-05-05 15:49:00,75.9,-99.9,30.08,East,81,4.3,7.6,-999,0.00,,,-99.99,perl,2013-05-05 19:49:00,
2013-05-05 15:54:00,76.1,-99.9,30.08,West,259,0.0,0.0,-999,0.00,,,-99.99,perl,2013-05-05 19:54:00,
2013-05-05 15:59:00,76.5,-99.9,30.08,ESE,120,2.7,3.6,-999,0.00,,,-99.99,perl,2013-05-05 19:59:00,
2013-05-05 16:04:00,77.0,-99.9,30.08,ESE,105,2.9,4.9,-999,0.00,,,-99.99,perl,2013-05-05 20:04:00,
2013-05-05 16:09:00,76.6,-99.9,30.08,East,93,4.8,8.1,-999,0.00,,,-99.99,perl,2013-05-05 20:09:00,
2013-05-05 16:14:00,75.9,-99.9,30.08,NE,52,4.6,5.4,-999,0.00,,,-99.99,perl,2013-05-05 20:14:00,
2013-05-05 16:19:00,76.1,33.8,30.08,SSW,204,0.0,5.4,21,0.00,,,-99.99,perl,2013-05-05 20:19:00,
2013-05-05 16:24:00,76.6,-99.9,30.08,ESE,112,3.0,3.0,-999,0.00,,,-99.99,perl,2013-05-05 20:24:00,
2013-05-05 16:29:00,76.8,-99.9,30.06,SSW,198,2.7,2.7,-999,0.00,,,-99.99,perl,2013-05-05 20:29:00,
2013-05-05 16:34:00,77.0,-99.9,30.06,East,100,3.0,5.4,-999,0.00,,,-99.99,perl,2013-05-05 20:34:00,
2013-05-05 16:39:00,77.2,-99.9,30.06,NE,50,1.7,0.0,-999,0.00,,,-99.99,perl,2013-05-05 20:39:00,
2013-05-05 16:44:00,77.0,-99.9,30.06,ESE,102,4.8,9.2,-999,0.00,,,-99.99,perl,2013-05-05 20:44:00,
2013-05-05 16:49:00,76.3,-99.9,30.06,East,95,4.5,5.8,-999,0.00,,,-99.99,perl,2013-05-05 20:49:00,
2013-05-05 16:54:00,76.1,-99.9,30.06,East,97,5.3,8.1,-999,0.00,,,-99.99,perl,2013-05-05 20:54:00,
2013-05-05 16:59:00,75.9,-99.9,30.06,ESE,102,3.8,4.0,-999,0.00,,,-99.99,perl,2013-05-05 20:59:00,
2013-05-05 17:04:00,76.1,-99.9,30.06,SE,127,4.1,5.8,-999,0.00,,,-99.99,perl,2013-05-05 21:04:00,
2013-05-05 17:09:00,76.3,-99.9,30.06,ESE,123,3.0,9.6,-999,0.00,,,-99.99,perl,2013-05-05 21:09:00,
2013-05-05 17:14:00,76.1,-99.9,30.06,ESE,123,3.6,5.8,-999,0.00,,,-99.99,perl,2013-05-05 21:14:00,
2013-05-05 17:19:00,76.1,-99.9,30.06,ENE,74,2.8,4.0,-999,0.00,,,-99.99,perl,2013-05-05 21:19:00,
2013-05-05 17:24:00,76.3,-99.9,30.06,East,100,0.0,0.0,-999,0.00,,,-99.99,perl,2013-05-05 21:24:00,
2013-05-05 17:29:00,75.6,32.0,30.06,NNE,30,2.3,3.6,20,0.00,,,-99.99,perl,2013-05-05 21:29:00,
2013-05-05 17:34:00,74.8,32.0,30.06,NNW,341,0.0,0.0,21,0.00,,,-99.99,perl,2013-05-05 21:34:00,
2013-05-05 17:39:00,73.9,32.0,30.06,NNE,13,0.0,0.0,22,0.00,,,-99.99,perl,2013-05-05 21:39:00,
2013-05-05 17:45:00,73.4,32.0,30.06,NE,38,1.3,3.6,22,0.00,,,-99.99,perl,2013-05-05 21:45:00,
2013-05-05 17:50:00,72.7,32.0,30.06,ESE,121,0.0,2.2,22,0.00,,,-99.99,perl,2013-05-05 21:50:00,
2013-05-05 17:56:00,72.7,32.0,30.06,East,90,0.0,2.7,22,0.00,,,-99.99,perl,2013-05-05 21:56:00,
2013-05-05 18:01:00,72.7,32.0,30.06,NNE,28,0.0,0.0,22,0.00,,,-99.99,perl,2013-05-05 22:01:00,
2013-05-05 18:06:00,72.5,32.0,30.06,NE,35,0.0,0.0,22,0.00,,,-99.99,perl,2013-05-05 22:06:00,
2013-05-05 18:11:00,72.5,32.0,30.06,West,268,0.0,0.0,22,0.00,,,-99.99,perl,2013-05-05 22:11:00,
2013-05-05 18:16:00,72.5,32.0,30.06,SSE,167,1.8,3.1,22,0.00,,,-99.99,perl,2013-05-05 22:16:00,
2013-05-05 18:22:00,71.8,-99.9,30.06,ENE,67,2.6,3.1,-999,0.00,,,-99.99,perl,2013-05-05 22:22:00,
2013-05-05 18:27:00,70.9,-99.9,30.06,NE,48,0.0,3.1,-999,0.00,,,-99.99,perl,2013-05-05 22:27:00,
2013-05-05 18:32:00,70.5,-99.9,30.06,NE,46,0.0,2.7,-999,0.00,,,-99.99,perl,2013-05-05 22:32:00,
2013-05-05 18:37:00,70.0,-99.9,30.06,NE,45,0.0,3.1,-999,0.00,,,-99.99,perl,2013-05-05 22:37:00,
2013-05-05 18:42:00,69.4,-99.9,30.06,NNE,23,0.8,0.0,-999,0.00,,,-99.99,perl,2013-05-05 22:42:00,
2013-05-05 18:47:00,69.1,-99.9,30.06,NNE,29,0.7,2.7,-999,0.00,,,-99.99,perl,2013-05-05 22:47:00,
2013-05-05 18:52:00,69.1,-99.9,30.06,NNE,21,0.0,0.0,-999,0.00,,,-99.99,perl,2013-05-05 22:52:00,
2013-05-05 18:57:00,69.1,-99.9,30.06,North,351,0.0,0.0,-999,0.00,,,-99.99,perl,2013-05-05 22:57:00,
2013-05-05 19:02:00,68.9,-99.9,30.06,East,92,1.9,4.0,-999,0.00,,,-99.99,perl,2013-05-05 23:02:00,
2013-05-05 19:07:00,68.7,-99.9,30.06,ESE,108,0.0,0.0,-999,0.00,,,-99.99,perl,2013-05-05 23:07:00,
2013-05-05 19:12:00,68.7,-99.9,30.06,SW,225,0.0,0.0,-999,0.00,,,-99.99,perl,2013-05-05 23:12:00,
2013-05-05 19:17:00,68.5,-99.9,30.06,NNE,15,0.0,0.0,-999,0.00,,,-99.99,perl,2013-05-05 23:17:00,
2013-05-05 19:22:00,68.5,-99.9,30.06,NNE,12,0.0,0.0,-999,0.00,,,-99.99,perl,2013-05-05 23:22:00,
2013-05-05 19:27:00,68.4,-99.9,30.06,NNE,28,0.0,0.0,-999,0.00,,,-99.99,perl,2013-05-05 23:27:00,
2013-05-05 19:32:00,68.4,-99.9,30.06,NNE,22,0.0,0.0,-999,0.00,,,-99.99,perl,2013-05-05 23:32:00,
2013-05-05 19:37:00,68.2,-99.9,30.06,ENE,60,0.0,0.0,-999,0.00,,,-99.99,perl,2013-05-05 23:37:00,
2013-05-05 19:42:00,68.2,-99.9,30.06,NE,44,0.0,0.0,-999,0.00,,,-99.99,perl,2013-05-05 23:42:00,
2013-05-05 19:47:00,68.0,-99.9,30.06,NE,42,0.0,0.0,-999,0.00,,,-99.99,perl,2013-05-05 23:47:00,
2013-05-05 19:52:00,68.0,-99.9,30.06,NE,49,0.0,3.1,-999,0.00,,,-99.99,perl,2013-05-05 23:52:00,
2013-05-05 19:57:00,67.8,-99.9,30.06,East,84,0.8,2.2,-999,0.00,,,-99.99,perl,2013-05-05 23:57:00,
2013-05-05 20:02:00,67.6,-99.9,30.06,NE,54,0.0,0.0,-999,0.00,,,-99.99,perl,2013-05-06 00:02:00,
2013-05-05 20:07:00,67.3,-99.9,30.06,East,91,0.0,0.0,-999,0.00,,,-99.99,perl,2013-05-06 00:07:00,
2013-05-05 20:13:00,67.1,-99.9,30.06,NE,36,0.0,0.0,-999,0.00,,,-99.99,perl,2013-05-06 00:13:00,
2013-05-05 20:18:00,66.7,-99.9,30.06,ENE,74,0.0,0.0,-999,0.00,,,-99.99,perl,2013-05-06 00:18:00,
2013-05-05 20:23:00,66.6,-99.9,30.06,East,94,0.0,0.0,-999,0.00,,,-99.99,perl,2013-05-06 00:23:00,
2013-05-05 20:28:00,66.4,-99.9,30.06,East,83,0.0,0.0,-999,0.00,,,-99.99,perl,2013-05-06 00:28:00,
2013-05-05 20:33:00,66.2,-99.9,30.06,ENE,78,0.0,0.0,-999,0.00,,,-99.99,perl,2013-05-06 00:33:00,
2013-05-05 20:38:00,66.0,-99.9,30.06,ENE,72,0.0,0.0,-999,0.00,,,-99.99,perl,2013-05-06 00:38:00,
2013-05-05 20:43:00,65.8,-99.9,30.06,ENE,73,0.0,0.0,-999,0.00,,,-99.99,perl,2013-05-06 00:43:00,
2013-05-05 20:48:00,65.5,-99.9,30.08,ENE,72,0.0,0.0,-999,0.00,,,-99.99,perl,2013-05-06 00:48:00,
2013-05-05 20:53:00,65.1,-99.9,30.08,ENE,73,0.0,0.0,-999,0.00,,,-99.99,perl,2013-05-06 00:53:00,
2013-05-05 20:58:00,64.8,-99.9,30.08,ENE,73,0.0,0.0,-999,0.00,,,-99.99,perl,2013-05-06 00:58:00,
2013-05-05 21:03:00,64.6,-99.9,30.08,ENE,72,0.0,0.0,-999,0.00,,,-99.99,perl,2013-05-06 01:03:00,
2013-05-05 21:08:00,64.4,-99.9,30.08,ENE,73,0.0,0.0,-999,0.00,,,-99.99,perl,2013-05-06 01:08:00,
2013-05-05 21:13:00,64.4,-99.9,30.08,ENE,73,0.0,0.0,-999,0.00,,,-99.99,perl,2013-05-06 01:13:00,
2013-05-05 21:18:00,64.2,-99.9,30.08,ENE,73,0.0,0.0,-999,0.00,,,-99.99,perl,2013-05-06 01:18:00,
2013-05-05 21:23:00,64.0,-99.9,30.08,ENE,72,0.0,0.0,-999,0.00,,,-99.99,perl,2013-05-06 01:23:00,
2013-05-05 21:28:00,63.9,-99.9,30.08,ENE,73,0.0,0.0,-999,0.00,,,-99.99,perl,2013-05-06 01:28:00,
2013-05-05 21:33:00,63.7,-99.9,30.08,ENE,72,0.0,0.0,-999,0.00,,,-99.99,perl,2013-05-06 01:33:00,
2013-05-05 21:38:00,63.3,-99.9,30.08,ENE,72,0.0,0.0,-999,0.00,,,-99.99,perl,2013-05-06 01:38:00,
2013-05-05 21:43:00,63.0,-99.9,30.08,ENE,73,0.0,0.0,-999,0.00,,,-99.99,perl,2013-05-06 01:43:00,
2013-05-05 21:48:00,62.6,-99.9,30.08,ENE,73,0.0,0.0,-999,0.00,,,-99.99,perl,2013-05-06 01:48:00,
2013-05-05 21:53:00,62.4,-99.9,30.08,ENE,73,0.0,0.0,-999,0.00,,,-99.99,perl,2013-05-06 01:53:00,
2013-05-05 21:58:00,62.4,-99.9,30.08,ENE,73,0.0,0.0,-999,0.00,,,-99.99,perl,2013-05-06 01:58:00,
2013-05-05 22:04:00,62.2,-99.9,30.08,ENE,72,0.0,0.0,-999,0.00,,,-99.99,perl,2013-05-06 02:04:00,
2013-05-05 22:09:00,62.4,-99.9,30.08,ENE,73,0.0,0.0,-999,0.00,,,-99.99,perl,2013-05-06 02:09:00,
2013-05-05 22:14:00,62.4,32.0,30.08,East,81,0.0,0.0,32,0.00,,,-99.99,perl,2013-05-06 02:14:00,
2013-05-05 22:19:00,62.1,33.8,30.08,WNW,300,0.0,0.0,34,0.00,,,-99.99,perl,2013-05-06 02:19:00,
2013-05-05 22:24:00,61.7,33.8,30.08,NE,42,0.0,0.0,35,0.00,,,-99.99,perl,2013-05-06 02:24:00,
2013-05-05 22:29:00,61.3,32.0,30.08,ESE,116,0.0,0.0,33,0.00,,,-99.99,perl,2013-05-06 02:29:00,
2013-05-05 22:34:00,61.0,32.0,30.08,SSE,168,0.0,0.0,33,0.00,,,-99.99,perl,2013-05-06 02:34:00,
2013-05-05 22:39:00,60.6,33.8,30.08,SSE,167,0.0,0.0,36,0.00,,,-99.99,perl,2013-05-06 02:39:00,
2013-05-05 22:44:00,60.3,33.8,30.08,SSE,168,0.0,0.0,37,0.00,,,-99.99,perl,2013-05-06 02:44:00,
2013-05-05 22:49:00,60.1,33.8,30.08,SSE,168,0.0,0.0,37,0.00,,,-99.99,perl,2013-05-06 02:49:00,
2013-05-05 22:54:00,59.7,32.0,30.08,SSE,168,0.0,0.0,35,0.00,,,-99.99,perl,2013-05-06 02:54:00,
2013-05-05 22:59:00,59.5,32.0,30.08,SSE,168,0.0,0.0,35,0.00,,,-99.99,perl,2013-05-06 02:59:00,
2013-05-05 23:04:00,59.4,32.0,30.08,SSE,168,0.0,0.0,35,0.00,,,-99.99,perl,2013-05-06 03:04:00,
2013-05-05 23:09:00,59.2,32.0,30.08,SSE,168,0.0,0.0,36,0.00,,,-99.99,perl,2013-05-06 03:09:00,
2013-05-05 23:14:00,59.0,32.0,30.08,SSE,168,0.0,0.0,36,0.00,,,-99.99,perl,2013-05-06 03:14:00,
2013-05-05 23:19:00,58.8,32.0,30.08,SSE,167,0.0,0.0,36,0.00,,,-99.99,perl,2013-05-06 03:19:00,
2013-05-05 23:24:00,58.6,33.8,30.08,SSE,167,0.0,0.0,39,0.00,,,-99.99,perl,2013-05-06 03:24:00,
2013-05-05 23:29:00,58.5,33.8,30.08,SSE,167,0.0,0.0,39,0.00,,,-99.99,perl,2013-05-06 03:29:00,
2013-05-05 23:34:00,58.3,33.8,30.08,SSE,168,0.0,0.0,39,0.00,,,-99.99,perl,2013-05-06 03:34:00,
2013-05-05 23:39:00,58.3,33.8,30.08,SSE,168,0.0,0.0,39,0.00,,,-99.99,perl,2013-05-06 03:39:00,
2013-05-05 23:44:00,58.5,33.8,30.08,SSE,168,0.0,0.0,39,0.00,,,-99.99,perl,2013-05-06 03:44:00,
2013-05-05 23:49:00,58.5,33.8,30.08,SSE,168,0.0,0.0,39,0.00,,,-99.99,perl,2013-05-06 03:49:00,
2013-05-05 23:55:00,58.6,33.8,30.08,SSE,168,0.0,0.0,39,0.00,,,-99.99,perl,2013-05-06 03:55:00,